Location: Kellogg
(38.0159°N, 90.0546°W)
Time: 06:22:16
(UTC+00:00)

Vanguard 1 Rocket - Pass Details

Date: 22 September 2024
Orbit: 650 x 4218 km, 34.3° (Epoch: 05 October)

Event Time Altitude Azimuth Distance (km) Brightness Sun altitude
Rises 16:22:04 0° 281° (WNW) 7,932 11.9 46.6°
Reaches altitude 10° 16:29:48 10° 268° (W) 7,248 11.9 47.4°
Maximum altitude 16:45:00 20° 231° (SW) 6,527 12.1 48.8°
Drops below altitude 10° 16:59:39 10° 193° (SSW) 6,810 12.5 50.0°
Sets 17:06:50 0° 177° (S) 7,312 12.6 50.5°
